CAPE
0 0 0 0 0 0 0 0 0 0 0 0 0 0 0 0 0 0 0 0 0 335 276 0 0 0 0 79 322 562 95 59 16 121 257 296 247 121 85 238 370 510 412 534 423
0 0 0 0 0 0 0 0 0 0 0 0 0 0 0 0 0 0 0 2 88 178 0 0 0 0 0 25 76 5 0 18 11 109 279 88 241 413 474 516 436 178 546 524 499
0 0 0 0 0 0 0 0 0 0 0 0 0 0 0 0 0 0 0 5 325 47 0 0 0 0 5 42 6 1 0 1 118 175 280 71 638 481 580 559 498 404 585 537 566
0 0 0 0 0 0 0 0 0 0 0 0 0 0 0 0 0 0 14 121 523 0 0 0 0 0 18 5 0 17 77 5 5 170 53 99 444 404 209 461 773 406 529 544 564
0 0 0 0 0 0 0 0 0 0 0 0 0 0 0 0 0 0 14 19 0 0 0 0 0 0 19 3 0 22 4 0 43 37 6 96 391 745 885 749 419 316 498 575 533
0 0 0 0 0 0 0 0 0 0 0 0 0 0 0 0 0 0 0 0 0 0 0 0 0 0 9 3 0 7 27 6 28 0 10 67 272 457 796 658 505 458 526 542 594
0 0 0 0 0 0 0 0 0 0 0 0 0 0 0 0 0 0 0 0 0 0 0 0 0 0 0 0 17 0 6 18 2 31 16 3 252 587 782 825 792 818 782 722 677
0 0 0 0 0 0 0 0 0 0 0 0 0 0 0 0 0 0 0 0 0 0 0 0 0 0 0 0 2 11 28 12 46 64 1 74 445 771 726 965 1106 1040 1001 1033 1064
0 0 0 0 0 0 0 0 0 0 0 0 0 0 0 0 0 0 0 0 0 0 0 0 0 0 0 0 36 11 21 18 65 33 18 34 322 714 671 653 681 1018 979 1149 1143
0 0 0 0 0 0 0 0 0 0 0 0 0 0 0 0 0 0 0 0 0 0 0 0 0 0 0 0 11 0 12 59 68 30 66 81 210 377 328 422 531 623 584 790 843
0 0 0 0 0 0 0 0 0 0 0 0 0 0 0 0 0 0 0 0 0 0 0 0 0 0 0 0 2 32 13 1 31 89 149 69 109 200 94 213 489 558 485 454 407
0 0 0 0 0 0 0 0 0 0 0 0 0 0 0 0 0 0 0 0 0 0 0 0 0 0 0 0 0 0 1 3 8 37 90 175 163 193 108 100 320 570 595 464 554
0 0 0 0 0 0 0 0 0 0 0 0 0 0 0 0 0 0 0 0 0 0 0 0 0 0 0 0 0 0 0 0 9 24 5 53 151 73 116 139 141 217 458 480 522
0 0 0 0 0 0 0 0 0 0 0 0 0 0 0 0 0 0 0 0 0 0 0 0 0 0 0 0 0 0 0 0 0 12 14 0 3 177 112 55 120 89 159 236 339
0 0 0 0 0 0 0 0 0 0 0 0 0 0 0 0 0 0 0 0 0 0 0 0 0 0 0 0 0 0 0 0 0 0 0 1 3 169 172 66 60 68 97 126 194
0 0 0 0 0 0 0 0 0 0 0 0 0 0 0 0 0 0 0 0 0 0 0 0 0 0 0 0 0 0 0 0 0 0 12 0 34 106 127 676 99 101 161 184 174
0 0 0 0 0 0 0 0 0 0 0 0 0 0 0 0 0 0 0 0 0 0 0 0 0 0 0 0 0 0 0 8 6 9 0 5 21 136 120 72 268 392 147 169 295
0 0 0 0 0 0 0 0 0 0 0 0 0 0 0 0 0 0 0 0 0 0 0 0 0 0 0 0 0 0 0 2 29 14 15 23 22 122 70 176 371 678 576 220 162
0 0 0 0 0 0 0 0 0 0 0 0 6 0 0 0 0 0 0 0 0 0 0 0 0 0 0 0 0 0 0 0 2 1 4 4 11 0 0 0 0 23 0 267 180
0 0 0 0 0 0 0 0 0 0 0 33 19 6 0 0 0 0 0 0 0 0 0 0 0 0 0 0 0 0 0 0 0 27 31 19 9 27 124 5 0 0 0 59 443
0 0 0 0 0 0 0 0 0 0 0 26 42 38 3 0 0 0 0 0 0 0 0 0 10 3 0 0 0 0 0 0 0 5 32 28 18 62 156 38 1 0 0 0 52
0 0 0 0 0 0 0 0 0 0 0 25 25 8 53 53 2 0 0 0 0 0 0 0 2 17 0 0 0 0 3 11 10 63 36 80 2 2 0 0 0 0 0 0 133
0 0 0 0 0 0 0 0 0 0 22 39 1 17 5 37 37 5 0 0 0 0 0 0 16 9 7 8 1 0 6 1 1 13 168 92 114 126 0 0 9 0 0 414 750
0 0 0 0 0 0 0 0 0 0 12 77 44 25 17 50 42 32 14 0 2 0 57 53 3 15 0 20 10 14 0 0 4 118 61 73 316 34 35 109 185 12 99 150 1092
0 0 9 22 0 0 0 13 137 7 65 73 69 21 110 140 92 40 10 7 10 79 4 16 190 8 1 0 3 10 4 0 1 24 50 124 77 140 32 34 4 0 0 8 459
0 0 0 0 13 78 0 43 148 93 114 110 70 35 45 153 425 439 294 314 123 40 7 6 123 3 0 2 0 0 0 37 5 0 0 21 180 85 203 128 6 0 0 55 137
0 0 0 0 6 14 143 187 227 121 148 25 117 147 141 260 188 234 150 187 243 306 142 231 26 136 22 0 0 39 5 8 68 69 22 135 246 413 135 4 0 0 2 83 231
CIN
0 0 0 0 0 0 0 0 0 0 0 0 0 0 0 0 0 0 0 0 0 -715 -801 0 0 0 0 -49 -10 -72 -30 -6 -38 -2 -8 -5 -3 -11 -27 -17 -24 -34 -80 -92 -81
0 0 0 0 0 0 0 0 0 0 0 0 0 0 0 0 0 0 0 -72 -567 -737 0 0 0 0 0 -14 -2 -15 0 -9 -52 -1 -75 -29 -6 -8 -2 -1 -3 -55 -84 -116 -93
0 0 0 0 0 0 0 0 0 0 0 0 0 0 0 0 0 0 0 -134 -646 -197 0 0 0 0 -2 -2 -4 -7 -2 -1 -14 -6 -157 -134 -52 -223 -93 -6 -31 -72 -108 -134 -103
0 0 0 0 0 0 0 0 0 0 0 0 0 0 0 0 0 0 -713 -731 -632 0 0 0 0 0 -8 -1 0 -5 -5 -1 -22 -47 -15 -2 -53 -42 -275 -8 -43 -80 -97 -126 -110
0 0 0 0 0 0 0 0 0 0 0 0 0 0 0 0 0 0 -559 -496 0 0 0 0 0 0 -3 -1 0 -6 0 0 -21 -3 -10 -27 -33 -6 -6 -3 -67 -92 -88 -110 -98
0 0 0 0 0 0 0 0 0 0 0 0 0 0 0 0 0 0 0 0 0 0 0 0 0 0 -3 -1 0 -9 0 -1 -5 0 -7 -33 -3 -28 -2 -32 -70 -79 -85 -86 -65
0 0 0 0 0 0 0 0 0 0 0 0 0 0 0 0 0 0 0 0 0 0 0 0 0 0 0 0 -2 -1 0 -1 0 -54 -46 -42 -9 -18 -3 -2 -24 -39 -43 -37 -39
0 0 0 0 0 0 0 0 0 0 0 0 0 0 0 0 0 0 0 0 0 0 0 0 0 0 0 0 -2 -1 -1 -1 -13 -42 -18 -20 -1 -10 -10 -1 -1 0 -1 -3 -10
0 0 0 0 0 0 0 0 0 0 0 0 0 0 0 0 0 0 0 0 0 0 0 0 0 0 0 0 -1 -1 -1 -17 -8 -94 -134 -43 -9 -11 -6 -2 -1 -2 -1 -3 -1
0 0 0 0 0 0 0 0 0 0 0 0 0 0 0 0 0 0 0 0 0 0 0 0 0 0 0 0 -1 -1 -20 -1 -10 -54 -37 -43 -8 -14 -1 -1 -6 -1 -5 -3 -15
0 0 0 0 0 0 0 0 0 0 0 0 0 0 0 0 0 0 0 0 0 0 0 0 0 0 0 0 -2 -2 -4 -2 -19 -28 -44 -37 -41 -19 -19 -1 -2 -4 -27 -14 -30
0 0 0 0 0 0 0 0 0 0 0 0 0 0 0 0 0 0 0 0 0 0 0 0 0 0 0 0 0 0 -2 -2 -7 0 -13 -19 -15 0 -10 -20 -2 -1 -31 -22 -13
0 0 0 0 0 0 0 0 0 0 0 0 0 0 0 0 0 0 0 0 0 0 0 0 0 0 0 0 0 0 0 0 -4 0 -12 -8 -14 -239 -8 0 -13 -4 -17 -19 -31
0 0 0 0 0 0 0 0 0 0 0 0 0 0 0 0 0 0 0 0 0 0 0 0 0 0 0 0 0 0 0 0 0 -1 -1 0 -5 -101 -14 -12 -19 -39 -40 -8 -29
0 0 0 0 0 0 0 0 0 0 0 0 0 0 0 0 0 0 0 0 0 0 0 0 0 0 0 0 0 0 0 0 0 0 0 -2 -7 -51 -2 -20 -54 -42 -41 -18 -15
0 0 0 0 0 0 0 0 0 0 0 0 0 0 0 0 0 0 0 0 0 0 0 0 0 0 0 0 0 0 0 0 0 0 0 -1 -2 -46 -50 -3 -30 -23 -5 -2 -3
0 0 0 0 0 0 0 0 0 0 0 0 0 0 0 0 0 0 0 0 0 0 0 0 0 0 0 0 0 0 0 0 -1 0 0 -1 0 -8 -23 -18 -19 -199 -235 -2 -9
0 0 0 0 0 0 0 0 0 0 0 0 0 0 0 0 0 0 0 0 0 0 0 0 0 0 0 0 0 0 0 -1 -2 0 0 -1 -2 -10 -4 -18 -25 -17 -36 -9 -27
0 0 0 0 0 0 0 0 0 0 0 0 -1 0 0 0 0 0 0 0 0 0 0 0 0 0 0 0 0 0 0 0 -1 -1 -5 -6 -12 0 0 0 0 -10 0 -16 -9
0 0 0 0 0 0 0 0 0 0 0 -1 -1 -1 0 0 0 0 0 0 0 0 0 0 0 0 0 0 0 0 0 0 0 -1 -1 -1 -8 -2 -17 -9 -2 0 0 -6 -11
0 0 0 0 0 0 0 0 0 0 0 -1 -3 -2 0 0 0 0 0 0 0 0 0 0 0 -2 0 0 0 0 0 0 0 0 -1 -1 -20 -30 -11 -12 -3 0 0 0 -19
0 0 0 0 0 0 0 0 0 0 0 0 -15 -7 -12 -4 0 0 0 0 0 0 0 0 -3 -3 0 0 0 0 -2 -1 -1 -2 -5 -1 -2 -3 0 0 0 0 0 0 -33
0 0 0 0 0 0 0 0 0 0 -1 -6 -1 -38 -11 -2 -2 -1 0 0 0 0 0 0 -1 -4 -5 -3 -1 0 -1 -1 0 -3 -3 -1 -11 -23 0 0 -15 -1 -3 -13 -15
0 0 0 0 0 0 0 0 0 0 -2 -1 -1 -9 -21 -2 -6 -4 -2 -1 -1 -1 -161 -46 0 -2 0 -3 -2 -3 0 0 -1 0 -2 -1 -12 -29 -4 -4 -10 -68 -21 -22 -12
0 0 -42 -3 0 0 0 -12 -2 -1 -1 -2 -14 -4 -1 -1 -3 -1 -5 -2 -2 -230 -16 -4 -1 -2 0 0 -7 -10 -10 0 -2 -9 -2 -9 -27 -31 -83 -2 -34 0 -7 -46 -21
0 0 0 0 -34 -2 -1 -13 -1 -1 0 -2 -10 -2 -3 -2 -10 -30 -66 -27 -2 -12 -14 -6 -4 -5 0 -1 0 0 0 -5 -6 0 0 -16 -5 -84 -23 -8 -47 0 0 -75 -55
0 0 0 0 -3 -35 -1 -1 -12 -4 -1 -22 -4 -19 -5 -110 -32 -86 -103 -76 -49 -8 -9 -10 -4 -3 -1 0 0 0 -3 -3 0 0 -6 -6 -8 -46 -41 -32 0 0 -173 -91 -74
Wind_Speed
nan nan nan nan nan nan nan nan nan nan nan nan nan nan nan nan nan nan nan nan nan 7 18 nan nan nan nan nan 47 55 nan nan nan 13 26 19 10 20 nan 8 14 9 19 18 18
nan nan nan nan nan nan nan nan nan nan nan nan nan nan nan nan nan nan nan nan nan 6 nan nan nan nan nan nan nan nan nan nan nan 11 29 nan 13 16 15 7 8 14 19 18 17
nan nan nan nan nan nan nan nan nan nan nan nan nan nan nan nan nan nan nan nan 4 nan nan nan nan nan nan nan nan nan nan nan 18 6 30 nan 19 23 37 7 11 19 21 18 15
nan nan nan nan nan nan nan nan nan nan nan nan nan nan nan nan nan nan nan 6 7 nan nan nan nan nan nan nan nan nan nan nan nan 31 nan nan 40 27 26 19 12 17 18 17 13
nan nan nan nan nan nan nan nan nan nan nan nan nan nan nan nan nan nan nan nan nan nan nan nan nan nan nan nan nan nan nan nan nan nan nan nan 23 24 25 18 18 18 17 16 13
nan nan nan nan nan nan nan nan nan nan nan nan nan nan nan nan nan nan nan nan nan nan nan nan nan nan nan nan nan nan nan nan nan nan nan nan 17 15 13 16 19 18 16 14 12
nan nan nan nan nan nan nan nan nan nan nan nan nan nan nan nan nan nan nan nan nan nan nan nan nan nan nan nan nan nan nan nan nan nan nan nan 16 16 16 15 16 17 14 13 11
nan nan nan nan nan nan nan nan nan nan nan nan nan nan nan nan nan nan nan nan nan nan nan nan nan nan nan nan nan nan nan nan nan nan nan nan 15 17 16 13 13 15 16 14 12
nan nan nan nan nan nan nan nan nan nan nan nan nan nan nan nan nan nan nan nan nan nan nan nan nan nan nan nan nan nan nan nan nan nan nan nan 14 15 16 13 11 12 14 16 17
nan nan nan nan nan nan nan nan nan nan nan nan nan nan nan nan nan nan nan nan nan nan nan nan nan nan nan nan nan nan nan nan nan nan nan nan 17 24 17 19 16 12 13 16 19
nan nan nan nan nan nan nan nan nan nan nan nan nan nan nan nan nan nan nan nan nan nan nan nan nan nan nan nan nan nan nan nan nan nan 48 nan 29 29 nan 22 20 20 13 15 18
nan nan nan nan nan nan nan nan nan nan nan nan nan nan nan nan nan nan nan nan nan nan nan nan nan nan nan nan nan nan nan nan nan nan nan 31 32 13 22 29 29 21 17 17 18
nan nan nan nan nan nan nan nan nan nan nan nan nan nan nan nan nan nan nan nan nan nan nan nan nan nan nan nan nan nan nan nan nan nan nan nan 44 nan 10 22 33 26 22 19 20
nan nan nan nan nan nan nan nan nan nan nan nan nan nan nan nan nan nan nan nan nan nan nan nan nan nan nan nan nan nan nan nan nan nan nan nan nan 39 10 nan 32 nan 25 21 22
nan nan nan nan nan nan nan nan nan nan nan nan nan nan nan nan nan nan nan nan nan nan nan nan nan nan nan nan nan nan nan nan nan nan nan nan nan 37 22 nan nan nan nan 20 23
nan nan nan nan nan nan nan nan nan nan nan nan nan nan nan nan nan nan nan nan nan nan nan nan nan nan nan nan nan nan nan nan nan nan nan nan nan 31 31 19 nan 21 15 25 29
nan nan nan nan nan nan nan nan nan nan nan nan nan nan nan nan nan nan nan nan nan nan nan nan nan nan nan nan nan nan nan nan nan nan nan nan nan 9 32 nan 24 32 8 36 34
nan nan nan nan nan nan nan nan nan nan nan nan nan nan nan nan nan nan nan nan nan nan nan nan nan nan nan nan nan nan nan nan nan nan nan nan nan 8 nan 30 35 30 34 37 36
nan nan nan nan nan nan nan nan nan nan nan nan nan nan nan nan nan nan nan nan nan nan nan nan nan nan nan nan nan nan nan nan nan nan nan nan nan nan nan nan nan nan nan 34 35
nan nan nan nan nan nan nan nan nan nan nan nan nan nan nan nan nan nan nan nan nan nan nan nan nan nan nan nan nan nan nan nan nan nan nan nan nan nan 32 nan nan nan nan nan 28
nan nan nan nan nan nan nan nan nan nan nan nan nan nan nan nan nan nan nan nan nan nan nan nan nan nan nan nan nan nan nan nan nan nan nan nan nan nan 29 nan nan nan nan nan nan
nan nan nan nan nan nan nan nan nan nan nan nan nan nan nan nan nan nan nan nan nan nan nan nan nan nan nan nan nan nan nan nan nan nan nan nan nan nan nan nan nan nan nan nan 19
nan nan nan nan nan nan nan nan nan nan nan nan nan nan nan nan nan nan nan nan nan nan nan nan nan nan nan nan nan nan nan nan nan nan 12 nan 21 39 nan nan nan nan nan 38 44
nan nan nan nan nan nan nan nan nan nan nan nan nan nan nan nan nan nan nan nan nan nan nan nan nan nan nan nan nan nan nan nan nan 18 nan nan 28 nan nan 26 43 nan nan 28 33
nan nan nan nan nan nan nan nan 17 nan nan nan nan nan 23 16 nan nan nan nan nan nan nan nan 26 nan nan nan nan nan nan nan nan nan nan 17 nan 33 nan nan nan nan nan nan 34
nan nan nan nan nan nan nan nan 21 nan 17 11 nan nan nan 24 37 48 48 39 17 nan nan nan 34 nan nan nan nan nan nan nan nan nan nan nan 20 nan 38 50 nan nan nan nan 39
nan nan nan nan nan nan 28 26 30 28 18 nan 32 35 36 56 49 50 45 45 47 37 34 38 nan 25 nan nan nan nan nan nan nan nan nan 24 27 47 54 nan nan nan nan nan 33
Wind_Direction
nan nan nan nan nan nan nan nan nan nan nan nan nan nan nan nan nan nan nan nan nan 114 141 nan nan nan nan nan 54 16 nan nan nan 276 343 323 308 261 nan 0 18 8 359 348 8
nan nan nan nan nan nan nan nan nan nan nan nan nan nan nan nan nan nan nan nan nan 125 nan nan nan nan nan nan nan nan nan nan nan 335 268 nan 130 315 335 354 342 323 323 341 3
nan nan nan nan nan nan nan nan nan nan nan nan nan nan nan nan nan nan nan nan 170 nan nan nan nan nan nan nan nan nan nan nan 277 279 305 nan 243 238 168 342 315 323 332 347 354
nan nan nan nan nan nan nan nan nan nan nan nan nan nan nan nan nan nan nan 200 185 nan nan nan nan nan nan nan nan nan nan nan nan 218 nan nan 261 300 347 71 314 329 333 343 352
nan nan nan nan nan nan nan nan nan nan nan nan nan nan nan nan nan nan nan nan nan nan nan nan nan nan nan nan nan nan nan nan nan nan nan nan 246 321 14 19 317 319 331 339 348
nan nan nan nan nan nan nan nan nan nan nan nan nan nan nan nan nan nan nan nan nan nan nan nan nan nan nan nan nan nan nan nan nan nan nan nan 285 297 297 313 314 327 328 338 344
nan nan nan nan nan nan nan nan nan nan nan nan nan nan nan nan nan nan nan nan nan nan nan nan nan nan nan nan nan nan nan nan nan nan nan nan 282 295 310 325 340 333 339 341 338
nan nan nan nan nan nan nan nan nan nan nan nan nan nan nan nan nan nan nan nan nan nan nan nan nan nan nan nan nan nan nan nan nan nan nan nan 292 301 321 330 339 356 352 341 340
nan nan nan nan nan nan nan nan nan nan nan nan nan nan nan nan nan nan nan nan nan nan nan nan nan nan nan nan nan nan nan nan nan nan nan nan 336 320 327 334 355 5 346 343 355
nan nan nan nan nan nan nan nan nan nan nan nan nan nan nan nan nan nan nan nan nan nan nan nan nan nan nan nan nan nan nan nan nan nan nan nan 320 332 329 318 346 1 356 353 352
nan nan nan nan nan nan nan nan nan nan nan nan nan nan nan nan nan nan nan nan nan nan nan nan nan nan nan nan nan nan nan nan nan nan 322 nan 325 342 nan 309 328 337 353 359 355
nan nan nan nan nan nan nan nan nan nan nan nan nan nan nan nan nan nan nan nan nan nan nan nan nan nan nan nan nan nan nan nan nan nan nan 303 324 332 342 321 318 329 339 352 347
nan nan nan nan nan nan nan nan nan nan nan nan nan nan nan nan nan nan nan nan nan nan nan nan nan nan nan nan nan nan nan nan nan nan nan nan 295 nan 136 334 328 329 329 339 336
nan nan nan nan nan nan nan nan nan nan nan nan nan nan nan nan nan nan nan nan nan nan nan nan nan nan nan nan nan nan nan nan nan nan nan nan nan 319 9 nan 322 nan 319 335 337
nan nan nan nan nan nan nan nan nan nan nan nan nan nan nan nan nan nan nan nan nan nan nan nan nan nan nan nan nan nan nan nan nan nan nan nan nan 295 286 nan nan nan nan 330 332
nan nan nan nan nan nan nan nan nan nan nan nan nan nan nan nan nan nan nan nan nan nan nan nan nan nan nan nan nan nan nan nan nan nan nan nan nan 254 296 322 nan 299 345 346 329
nan nan nan nan nan nan nan nan nan nan nan nan nan nan nan nan nan nan nan nan nan nan nan nan nan nan nan nan nan nan nan nan nan nan nan nan nan 286 317 nan 346 311 43 338 322
nan nan nan nan nan nan nan nan nan nan nan nan nan nan nan nan nan nan nan nan nan nan nan nan nan nan nan nan nan nan nan nan nan nan nan nan nan 5 nan 323 328 357 6 323 325
nan nan nan nan nan nan nan nan nan nan nan nan nan nan nan nan nan nan nan nan nan nan nan nan nan nan nan nan nan nan nan nan nan nan nan nan nan nan nan nan nan nan nan 293 300
nan nan nan nan nan nan nan nan nan nan nan nan nan nan nan nan nan nan nan nan nan nan nan nan nan nan nan nan nan nan nan nan nan nan nan nan nan nan 288 nan nan nan nan nan 311
nan nan nan nan nan nan nan nan nan nan nan nan nan nan nan nan nan nan nan nan nan nan nan nan nan nan nan nan nan nan nan nan nan nan nan nan nan nan 267 nan nan nan nan nan nan
nan nan nan nan nan nan nan nan nan nan nan nan nan nan nan nan nan nan nan nan nan nan nan nan nan nan nan nan nan nan nan nan nan nan nan nan nan nan nan nan nan nan nan nan 250
nan nan nan nan nan nan nan nan nan nan nan nan nan nan nan nan nan nan nan nan nan nan nan nan nan nan nan nan nan nan nan nan nan nan 197 nan 260 264 nan nan nan nan nan 301 300
nan nan nan nan nan nan nan nan nan nan nan nan nan nan nan nan nan nan nan nan nan nan nan nan nan nan nan nan nan nan nan nan nan 250 nan nan 261 nan nan 282 278 nan nan 297 300
nan nan nan nan nan nan nan nan 163 nan nan nan nan nan 200 172 nan nan nan nan nan nan nan nan 214 nan nan nan nan nan nan nan nan nan nan 251 nan 254 nan nan nan nan nan nan 299
nan nan nan nan nan nan nan nan 166 nan 227 265 nan nan nan 166 198 200 194 193 206 nan nan nan 217 nan nan nan nan nan nan nan nan nan nan nan 284 nan 297 286 nan nan nan nan 298
nan nan nan nan nan nan 194 198 175 150 212 nan 214 194 170 198 207 191 193 194 202 220 234 236 nan 232 nan nan nan nan nan nan nan nan nan 211 224 262 283 nan nan nan nan nan 285